Location: Владивосток
(43.1151°N, 131.8856°E)
Time: 03:48:50
(UTC+10:00)

CZ-6A DEB - Pass Details

Date: 20 December 2025
Orbit: 721 x 816 km, 98.7° (Epoch: 12 January)

Event Time Altitude Azimuth Distance (km) Brightness Sun altitude
Rises 07:50:10 0° 38° (NE) 3,142 ? -8.9°
Reaches altitude 10° 07:54:52 10° 79° (E) 2,214 ? -8.1°
Maximum altitude 07:55:37 10° 88° (E) 2,191 ? -8.0°
Drops below altitude 10° 07:56:22 10° 97° (E) 2,214 ? -7.9°
Sets 08:01:02 0° 139° (SE) 3,139 ? -7.1°
